Probability
0 0 0 0 0 0 0 0 0 0 0 0 0 0 0 0 0 0 0 0 0 0 0 0 0 0 0 0 0 0 0 0 0 0 0 0 0 0 0 0 0 0 0 0 0 0 0 0 0
0 0 0 0 0 0 0 0 0 0 0 0 0 0 0 0 0 0 0 0 0 0 0 0 0 0 0 0 0 0 0 0 0 0 0 0 0 0 0 0 0 0 0 0 0 0 0 0 0
0 0 0 0 0 0 0 0 0 0 0 0 0 0 0 0 0 0 0 0 0 0 0 0 0 0 0 0 0 0 0 0 0 0 0 0 0 0 0 0 0 0 0 0 0 0 0 0 0
0 0 0 0 0 0 0 0 0 0 0 0 0 0 0 0 0 0 0 0 0 0 0 0 0 0 0 0 0 0 0 0 0 0 0 0 0 0 0 0 0 0 0 0 0 0 0 0 0
0 0 0 0 0 0 0 0 0 0 0 0 0 0 0 0 0 0 0 0 0 0 0 0 0 0 0 0 0 0 0 0 0 0 0 0 0 0 0 0 0 0 0 0 0 0 0 0 0
0 0 0 0 0 0 0 0 0 0 0 0 0 0 0 0 0 0 0 0 0 0 0 0 0 0 0 0 0 0 0 0 0 0 0 0 0 0 0 0 0 0 0 0 0 0 0 0 0
0 0 0 0 0 0 0 0 0 0 0 0 0 0 0 0 0 0 0 0 0 0 0 0 0 0 0 0 0 0 0 0 0 0 0 0 0 0 0 0 0 0 0 0 0 0 0 0 0
0 0 0 0 0 0 0 0 0 0 0 0 0 0 0 0 0 0 0 0 0 0 0 0 0 0 0 0 0 0 0 0 0 0 0 0 0 0 0 0 0 0 0 0 0 0 0 0 0
0 0 0 0 0 0 0 0 0 0 0 0 0 0 0 0 0 0 0 0 0 0 0 0 0 0 0 0 0 0 0 0 0 0 0 0 0 0 0 0 0 0 0 0 0 0 0 0 0
0 0 0 0 0 0 0 0 0 0 0 0 0 0 0 0 0 0 0 0 0 0 0 0 0 0 0 0 0 0 0 0 0 0 0 0 0 0 0 0 0 0 0 0 0 0 0 0 0
0 0 0 0 0 0 0 0 0 0 0 0 0 0 0 0 0 0 0 0 0 0 0 0 0 0 0 0 0 0 0 0 0 0 0 0 0 0 0 0 0 0 0 0 0 0 0 0 0
0 0 0 0 0 0 0 0 0 0 0 0 0 0 0 0 0 0 0 0 0 0 0 0 0 0 0 0 0 0 0 0 0 0 0 0 0 0 0 0 0 0 0 0 0 0 0 0 0
0 0 0 0 0 0 0 0 0 0 0 0 0 0 0 0 0 0 0 0 0 0 0 0 0 0 0 0 0 0 0 0 0 0 0 0 0 0 0 0 0 0 0 0 0 0 0 0 0
0 0 0 0 0 0 0 0 0 0 0 0 0 0 0 0 0 0 0 0 0 0 0 0 0 0 0 0 0 0 0 0 0 0 0 0 0 0 0 0 0 0 0 0 0 0 0 0 0
0 0 0 0 0 0 0 0 0 0 0 0 0 0 0 0 0 0 0 0 0 0 0 0 0 0 0 0 0 0 0 0 0 0 0 0 0 0 0 0 0 0 0 0 0 0 0 0 0
0 0 0 0 0 0 0 0 0 0 0 0 0 0 0 0 0 0 0 0 0 0 0 0 0 0 0 0 0 0 0 0 0 0 0 0 0 0 0 0 0 0 0 0 0 0 0 0 0
0 0 0 0 0 0 0 0 0 0 0 0 0 0 0 0 0 0 0 0 0 0 0 0 0 0 0 0 0 0 0 0 0 0 0 0 0 0 0 0 0 0 0 0 0 0 0 0 0
0 0 0 0 0 0 0 0 0 0 0 0 0 0 0 0 0 0 0 0 0 0 0 0 0 0 0 0 0 0 0 0 0 0 0 0 0 0 0 0 0 0 0 0 0 0 0 0 0
0 0 0 0 0 0 0 0 0 0 0 0 0 0 0 0 0 0 0 0 0 0 0 0 0 0 0 0 0 0 0 0 0 0 0 0 0 0 0 0 0 0 0 0 0 0 0 0 0
0 0 0 0 0 0 0 0 0 0 0 0 0 0 0 0 0 0 0 0 0 0 0 0 0 0 0 0 0 0 0 0 0 0 0 0 0 0 0 0 0 0 0 0 0 0 0 0 0
0 0 0 0 0 0 0 0 0 0 0 0 0 0 0 0 0 0 0 0 0 0 0 0 0 0 0 0 0 0 0 0 0 0 0 0 0 0 0 0 0 0 0 0 0 0 0 0 0
0 0 0 0 0 0 0 0 0 0 0 0 0 0 0 0 0 0 0 0 0 0 0 0 0 0 0 0 0 0 0 0 0 0 0 0 0 0 0 0 0 0 0 0 0 0 0 0 0
0 0 0 0 0 0 0 0 0 0 0 0 0 0 0 0 0 0 0 0 0 0 0 0 0 0 0 0 0 0 0 0 0 0 0 0 0 0 0 0 0 0 0 0 0 0 0 0 0
0 0 0 0 0 0 0 0 0 0 0 0 0 0 0 0 0 0 0 0 0 0 0 0 0 0 0 0 0 0 0 0 0 0 0 0 0 0 0 0 0 0 0 0 0 0 0 0 0
0 0 0 0 0 0 0 0 0 0 0 0 0 0 0 0 0 0 0 0 0 0 0 0 0 0 0 0 0 0 0 0 0 0 0 0 0 0 0 0 0 0 0 0 0 0 0 0 0
0 0 0 0 0 0 0 0 0 0 0 0 0 0 0 0 0 0 0 0 0 0 0 0 0 0 0 0 0 0 0 0 0 0 0 0 0 0 0 0 0 0 0 0 0 0 0 0 0
0 0 0 0 0 0 0 0 0 0 0 0 0 0 0 0 0 0 0 0 0 0 0 0 0 0 0 0 0 0 0 0 0 0 0 0 0 0 0 0 0 0 0 0 0 0 0 0 0
0 0 0 0 0 0 0 0 0 0 0 0 0 0 0 0 0 0 0 0 0 0 0 0 0 0 0 0 0 0 0 0 0 0 0 0 0 0 0 0 0 0 0 0 0 0 0 0 0
0 0 0 0 0 0 0 0 0 0 0 0 0 0 0 0 0 0 0 0 0 0 0 0 0 0 0 0 0 0 0 0 0 0 0 0 0 0 0 0 0 0 0 0 0 0 0 0 0
0 0 0 0 0 0 0 0 0 0 0 0 0 0 0 0 0 0 0 0 0 0 0 0 0 0 0 0 0 0 0 0 0 0 0 0 0 0 0 0 0 0 0 0 0 0 0 0 0
Wind_Speed
5 2 2 4 7 6 1 2 2 1 2 1 1 5 7 5 3 1 1 7 6 8 9 11 16 14 13 12 12 12 11 10 10 10 10 10 10 11 11 11 12 12 12 12 13 13 13 13 13
1 1 5 6 6 3 2 2 3 4 2 3 3 3 3 1 0 2 2 6 6 9 8 7 15 15 13 13 12 12 11 11 10 10 9 10 10 10 10 11 11 11 11 11 11 12 12 12 12
1 4 5 5 4 4 3 3 4 2 0 2 2 2 2 2 1 3 3 8 7 9 7 9 16 15 14 13 13 12 12 11 10 9 9 9 9 9 10 10 10 10 10 10 11 11 11 11 11
3 5 6 5 2 3 3 2 1 1 1 2 3 2 1 0 1 2 6 9 9 8 7 9 16 15 14 14 13 12 11 11 10 9 8 8 8 9 9 9 9 9 9 9 10 10 10 10 10
5 5 6 3 2 3 2 2 0 0 0 1 3 3 1 1 1 4 8 9 10 8 6 8 16 15 15 13 13 12 11 11 10 9 8 8 8 8 7 7 7 7 8 8 8 9 9 9 9
5 5 5 1 3 4 2 2 1 0 0 1 4 3 2 1 2 4 7 8 8 9 7 7 15 15 15 14 13 12 12 11 10 9 8 8 7 7 6 6 6 6 6 6 7 7 7 7 8
5 5 3 1 2 2 2 1 1 1 0 1 4 4 2 1 3 5 6 6 6 7 7 5 7 10 13 14 13 13 12 11 10 9 8 8 7 6 6 5 4 4 4 4 5 5 6 6 6
5 5 3 0 0 2 2 1 1 2 2 0 3 5 4 3 6 7 6 5 5 6 6 5 5 5 6 7 11 12 11 11 10 9 8 7 6 5 5 4 2 2 2 2 3 4 4 5 6
4 6 1 2 3 2 1 1 1 1 1 0 1 3 1 5 8 8 5 4 6 7 5 5 5 5 5 5 8 9 10 9 8 7 8 6 3 3 3 3 3 1 1 2 3 4 5 6 6
5 3 4 3 3 3 1 1 2 0 1 2 2 1 3 5 7 8 8 10 11 11 8 6 6 6 5 5 4 4 4 4 4 4 4 4 3 2 2 2 3 3 3 4 4 5 5 4 2
3 4 3 3 3 2 2 2 1 2 5 7 7 5 5 4 5 7 7 9 11 10 10 8 7 6 6 4 4 3 2 3 4 5 5 4 3 1 1 0 1 2 2 2 3 4 2 2 2
1 2 3 3 2 2 3 2 2 5 9 5 5 4 5 7 8 8 8 8 7 8 10 9 8 7 6 5 4 4 3 3 3 4 5 4 2 2 2 1 1 1 1 1 1 1 2 3 3
1 2 2 3 3 3 3 4 4 7 7 2 1 3 6 7 6 6 5 5 7 9 10 10 9 8 7 5 4 4 4 4 4 3 4 4 3 3 2 2 2 2 2 2 2 2 3 3 4
2 2 4 4 3 2 4 4 3 9 3 2 3 5 5 6 6 4 4 6 7 9 10 10 10 9 7 6 5 4 4 4 3 3 4 5 3 3 3 2 2 2 2 2 2 3 3 3 3
1 3 6 3 2 2 1 6 7 7 2 3 5 5 5 5 4 5 5 6 7 8 9 10 11 9 8 7 6 4 4 4 3 3 3 4 3 3 3 2 2 2 2 2 2 2 2 3 3
3 3 4 5 2 1 2 8 9 3 4 6 6 5 5 5 4 4 4 4 5 6 8 10 9 9 8 7 6 4 4 4 3 2 2 3 3 3 2 2 2 2 1 1 1 1 1 2 3
3 1 3 7 3 1 2 9 9 2 4 7 7 7 6 5 4 3 2 2 4 6 8 9 9 9 8 7 5 4 4 3 2 2 2 2 2 2 2 1 1 0 0 0 1 1 1 2 3
4 3 4 5 4 1 5 11 13 7 7 9 8 7 7 7 6 2 1 1 3 4 6 8 8 8 7 6 5 4 4 3 2 2 2 2 2 2 2 1 0 1 1 0 0 1 1 2 2
4 4 6 7 5 3 9 14 16 11 7 10 9 9 9 9 4 2 2 3 4 4 6 7 8 8 7 5 4 4 3 2 2 2 2 3 2 2 2 1 1 1 1 0 0 0 1 2 1
3 4 6 8 4 4 8 13 13 10 9 10 11 11 11 7 5 4 4 3 4 5 6 7 8 8 7 5 4 3 3 3 2 2 3 3 3 2 2 2 1 1 1 1 1 1 1 1 1
5 6 6 7 6 4 6 11 9 8 5 6 7 8 8 10 10 7 6 4 4 5 6 7 7 8 7 7 5 4 4 3 2 2 1 1 2 2 2 2 2 1 1 0 0 0 1 1 1
7 7 6 4 3 5 3 8 11 8 8 7 7 7 8 8 8 7 7 6 6 5 5 6 7 7 7 7 7 6 4 3 3 2 1 1 2 2 2 2 2 2 1 0 0 1 1 2 1
7 2 3 1 2 4 2 5 12 6 8 9 7 7 8 8 9 9 8 7 5 5 5 6 7 7 6 6 7 7 5 3 3 2 2 1 1 2 2 2 2 1 1 1 1 1 1 2 2
5 5 4 4 3 4 5 5 11 6 8 8 6 6 7 8 7 7 6 6 5 5 5 6 7 6 6 6 6 7 7 6 5 3 2 1 0 0 1 1 1 0 1 1 2 2 2 2 3
5 5 3 4 2 7 3 4 13 12 8 8 9 8 7 8 8 8 9 8 7 7 7 6 8 6 6 6 6 6 7 7 6 4 3 2 1 1 1 0 1 1 1 2 2 2 3 3 3
6 9 8 5 5 6 2 8 13 10 8 7 8 6 6 8 9 9 10 9 9 8 8 8 8 7 6 6 6 5 6 4 3 4 3 3 2 2 2 1 2 2 2 2 2 2 3 3 4
7 5 6 5 1 4 7 8 13 7 6 5 4 2 5 8 9 9 9 8 9 9 8 8 8 7 7 6 6 5 5 5 4 4 3 2 2 2 2 2 2 2 3 3 3 3 4 4 4
7 9 6 5 4 5 7 6 7 9 9 8 5 5 5 6 7 8 8 9 8 7 7 7 7 7 7 7 6 5 5 5 4 4 4 3 3 2 2 3 3 3 3 4 3 4 4 5 5
6 5 5 5 5 5 5 9 8 8 7 8 9 6 6 7 9 9 8 7 7 7 7 7 7 7 6 7 6 5 5 4 4 4 4 3 3 3 3 3 3 4 4 4 4 5 5 6 6
7 9 10 7 6 5 4 10 7 6 7 7 9 6 5 6 7 7 7 8 8 8 8 8 8 7 7 6 6 5 5 4 4 4 4 4 4 4 4 4 4 5 5 5 5 6 6 6 7
Wind_Direction
338 5 63 56 55 53 89 252 228 242 250 235 130 139 143 150 158 181 309 147 142 148 168 175 159 160 158 149 138 131 125 120 113 106 98 95 91 86 80 75 70 68 65 62 61 60 59 56 55
329 32 53 58 82 79 282 252 219 223 217 115 84 105 111 128 135 137 146 173 150 152 162 169 162 162 160 153 145 139 132 125 118 113 105 99 93 86 81 77 72 69 66 64 62 60 59 57 54
14 51 77 72 100 159 206 228 217 277 41 113 92 67 129 151 168 181 179 162 144 151 159 168 164 164 162 157 150 144 137 132 125 119 113 104 95 88 82 77 73 69 67 65 61 58 58 56 53
69 45 54 71 108 212 228 266 235 314 36 63 119 97 304 302 246 194 143 147 143 152 158 170 166 167 165 161 154 149 145 140 133 127 122 111 101 92 85 80 76 71 66 64 61 57 54 52 51
58 71 60 48 323 294 275 292 178 221 335 63 126 145 249 5 60 125 142 148 149 153 160 173 170 170 169 166 161 156 153 148 140 136 130 120 109 101 95 87 79 72 67 61 58 55 53 49 46
56 64 79 38 314 317 319 335 73 342 264 120 135 152 246 15 107 137 145 148 152 153 159 172 175 174 172 170 166 162 158 154 150 147 141 129 119 116 109 98 87 75 66 59 53 49 45 43 40
96 90 120 153 313 328 334 339 145 184 204 226 160 151 273 293 127 131 128 131 142 151 157 175 178 175 175 173 171 168 164 162 160 157 151 140 132 130 122 112 97 83 65 54 45 39 33 30 27
113 100 96 112 175 286 310 334 171 186 217 115 146 166 227 210 119 110 104 118 140 156 164 174 173 166 168 171 174 171 171 170 168 164 154 147 142 137 131 128 124 96 65 41 27 17 14 13 10
84 77 132 206 195 253 298 344 305 190 140 280 216 217 255 118 117 112 116 137 163 175 178 176 172 163 161 163 175 171 173 174 169 162 155 141 123 117 124 155 192 232 293 323 338 343 352 7 3
81 122 216 218 205 225 263 233 269 333 285 266 266 226 106 131 144 152 166 176 183 188 188 183 175 166 162 166 161 157 157 158 147 139 140 126 128 136 141 202 241 267 302 316 325 335 353 11 355
120 178 229 251 230 225 240 246 228 196 248 231 225 217 160 166 173 181 186 188 192 190 189 185 179 169 165 161 151 148 144 142 141 145 142 135 132 132 126 155 310 323 331 340 337 344 342 323 303
145 227 221 252 225 207 223 237 241 215 231 236 224 197 175 185 197 201 201 198 188 188 194 187 178 172 170 160 156 155 152 150 154 159 155 149 155 169 184 206 225 243 260 263 273 276 283 287 283
210 260 256 261 269 250 247 242 245 250 249 261 183 168 189 201 215 221 216 202 190 194 195 189 180 177 170 161 162 162 167 166 166 163 166 166 171 188 196 207 217 230 229 236 250 262 276 283 286
248 272 294 287 270 248 230 256 235 260 246 209 196 200 206 211 219 225 219 208 200 198 195 188 184 179 169 168 167 168 167 164 160 168 177 177 179 184 189 206 220 235 233 238 244 256 268 275 279
42 344 324 305 277 271 224 290 243 251 184 219 222 218 220 227 227 229 229 218 206 199 191 186 184 176 173 171 171 166 163 159 163 172 177 179 180 186 187 202 225 237 232 235 244 260 264 276 280
51 27 318 300 299 279 161 272 273 261 194 232 234 232 232 237 236 246 247 228 206 185 179 182 179 173 172 167 163 157 154 152 158 159 163 172 178 178 177 197 232 242 226 223 240 251 272 278 283
24 325 280 300 295 224 214 260 275 266 214 243 242 236 235 243 247 252 246 212 184 174 168 169 168 167 165 156 146 138 135 136 138 134 136 144 145 150 158 188 228 212 182 224 257 246 240 279 292
236 243 262 272 288 256 254 261 274 268 233 243 243 237 233 233 234 227 192 149 141 146 151 155 155 155 147 135 121 113 107 106 102 109 118 118 117 121 127 126 78 81 89 359 321 280 268 264 287
188 215 254 262 271 270 261 268 275 271 248 245 240 230 227 228 225 187 148 126 120 126 140 151 151 152 147 143 142 138 137 125 104 93 93 94 93 95 105 101 83 80 109 225 333 338 324 309 334
195 242 268 284 285 247 276 277 272 263 242 233 229 225 219 212 197 187 168 148 144 143 145 149 153 154 155 149 139 128 126 120 110 97 83 78 89 94 107 109 105 98 96 43 38 61 10 317 11
214 216 241 264 315 323 320 299 288 284 261 258 241 224 210 199 194 187 179 171 155 153 156 154 153 150 144 135 119 101 89 81 80 79 78 54 77 86 92 100 102 96 106 86 7 141 168 269 307
240 225 221 256 309 297 355 300 289 281 293 271 254 228 212 199 185 183 181 177 174 166 151 142 141 140 141 143 145 143 144 147 159 147 124 70 64 74 83 93 97 98 105 122 264 168 189 190 254
212 181 172 226 221 294 282 251 283 306 290 280 260 235 220 200 187 184 182 176 165 154 146 140 134 134 139 143 145 138 131 132 128 115 107 80 47 60 75 95 102 109 134 200 231 229 212 198 210
144 81 63 52 74 282 239 209 279 263 249 281 286 245 221 199 186 175 163 153 151 147 143 142 138 136 139 138 139 141 141 142 139 140 145 144 44 23 48 98 111 163 213 239 240 233 232 225 226
122 106 9 336 339 254 231 216 254 257 253 257 273 261 219 192 179 173 171 171 168 164 160 154 147 144 146 141 143 147 149 153 158 164 171 173 188 225 249 194 221 240 246 250 242 239 245 236 232
174 155 172 214 239 282 271 238 257 265 274 270 268 256 202 187 186 186 184 179 174 172 167 161 158 153 155 151 151 150 151 151 160 167 170 184 197 215 222 231 243 253 258 258 247 245 248 239 238
151 194 171 144 206 269 271 280 297 294 301 304 304 258 207 196 192 190 184 181 178 175 175 170 163 159 162 160 154 155 158 160 167 170 174 187 205 215 220 234 250 259 260 258 254 249 255 250 246
153 148 121 147 199 252 275 269 257 291 301 312 303 270 238 206 196 192 188 185 182 176 170 168 167 167 166 164 164 163 169 171 170 169 186 200 212 215 228 245 252 259 262 259 253 256 256 255 254
136 149 148 156 174 185 253 264 232 243 272 292 289 268 233 211 202 197 191 183 174 168 168 172 172 167 168 170 168 165 173 172 171 184 201 206 213 221 233 243 250 256 260 258 253 255 259 257 261
173 174 155 171 215 197 210 264 264 251 269 275 282 275 237 214 203 192 181 173 174 178 179 180 178 177 177 172 169 173 174 174 184 203 213 211 222 232 237 244 250 256 257 255 252 260 261 257 261